Location: Cahas Mountain Overlook
(37.0833°N, 80.1000°W)
Time: 19:30:54
(UTC-04:00)

SR - Pass Details

Date: 16 February 2026
Orbit: 572 x 849 km, 66.7° (Epoch: 12 March)

Event Time Altitude Azimuth Distance (km) Brightness Sun altitude
Rises 14:54:34 0° 323° (NW) 3,130 ? 30.8°
Reaches altitude 10° 14:56:58 10° 316° (NW) 2,250 ? 30.5°
Maximum altitude 15:01:46 40° 248° (WSW) 1,134 ? 29.9°
Drops below altitude 10° 15:06:52 10° 180° (S) 2,389 ? 29.2°
Sets 15:09:30 0° 173° (S) 3,346 ? 28.8°
